Wind_Speed
18 17 17 16 16 16 16 15 15 14 13 12 12 12 11 11 10 8 8 9 9 8 8 8 8 9 9 8 8 8 9 9 9 9 9 10 10 11 12 13 14 14 14 15 15 15 15 15 15 15 14 15 16 18 19 20 22 23 23 23 22 21 21 20 12 12 22 29 28 28 26 24 24 25 26 26 27 27 28 28 28 28 28 28 27
16 15 15 15 14 14 14 13 13 13 12 11 11 10 10 10 10 9 8 9 9 8 9 9 9 9 9 8 8 8 8 8 8 8 9 9 10 11 11 12 13 14 15 15 16 16 17 18 18 18 17 16 17 17 17 17 17 19 21 22 23 23 22 21 17 12 16 23 26 27 26 24 23 25 27 27 28 30 31 31 31 30 30 29 29
14 13 13 13 12 12 12 12 12 12 12 11 11 10 9 9 10 10 9 9 9 9 10 10 10 10 9 9 8 8 9 9 8 9 9 10 11 11 11 12 13 14 14 15 15 16 17 18 19 19 19 19 20 20 20 20 20 20 21 21 21 22 23 23 21 17 16 20 24 26 25 23 22 24 26 28 28 30 31 31 31 31 30 29 29
13 12 12 11 11 11 11 11 12 12 12 11 10 9 9 9 9 10 10 10 11 10 10 10 10 11 10 10 10 10 10 10 11 11 10 10 11 12 13 13 14 14 15 15 16 16 17 19 20 21 20 21 22 23 22 23 22 22 22 23 22 22 23 23 23 22 20 20 23 27 27 26 25 24 25 26 27 28 29 27 26 26 28 28 28
12 11 11 11 10 10 9 9 11 11 11 10 9 9 9 10 10 11 11 12 13 12 11 10 11 12 11 11 11 11 12 12 13 12 12 12 12 13 14 14 15 15 16 17 18 19 20 21 22 21 20 21 22 22 22 21 21 21 22 23 23 22 22 23 23 23 22 20 21 25 27 27 27 26 26 26 27 27 29 28 26 24 25 27 27
12 11 11 11 10 9 9 9 11 11 11 11 9 9 9 10 11 13 12 13 14 14 12 11 12 12 12 12 12 13 13 13 13 13 14 14 14 14 15 16 17 18 19 20 20 20 20 21 22 21 20 21 21 21 21 21 20 21 21 21 22 22 24 25 26 26 25 25 25 25 26 27 26 25 25 26 27 26 26 27 28 28 28 29 29
13 12 11 12 12 8 8 10 11 11 11 10 9 9 10 10 11 12 12 13 14 13 13 13 13 13 13 13 13 14 14 13 14 15 15 15 15 15 17 18 20 21 21 21 20 20 20 20 21 21 20 20 20 20 20 20 19 19 20 21 23 24 24 24 25 25 25 25 25 25 26 27 27 27 27 28 28 26 24 23 24 27 28 29 29
14 12 11 13 12 9 9 10 10 9 10 9 9 10 11 12 12 12 13 13 13 13 13 14 15 15 13 13 14 14 14 14 14 14 14 14 15 17 18 19 20 21 20 20 20 20 21 21 22 22 22 22 21 21 20 21 21 20 19 19 20 20 20 20 22 23 23 23 22 23 24 26 27 27 27 25 23 23 24 24 23 24 26 27 29
13 12 11 12 12 10 9 10 9 9 10 10 10 11 12 13 13 14 14 14 14 15 15 15 16 15 14 14 15 14 14 15 14 13 14 16 17 19 19 20 20 20 21 21 21 21 22 22 23 23 24 24 24 23 23 23 21 19 18 18 18 18 18 19 19 19 19 19 20 21 22 22 22 22 20 20 20 22 25 26 25 25 27 28 29
15 15 13 11 11 11 10 11 10 10 10 10 10 11 11 12 13 14 14 14 15 16 16 16 16 16 16 16 16 16 15 15 14 14 16 18 19 20 21 21 20 21 22 23 23 24 25 25 25 25 24 24 23 22 20 19 17 17 17 18 19 19 20 20 19 18 17 16 17 18 18 17 20 21 20 21 23 25 26 27 26 26 26 22 21
17 16 14 13 14 13 13 13 12 11 11 11 11 12 12 13 14 14 14 15 15 15 16 16 16 17 17 17 17 17 17 16 16 17 18 19 19 21 22 22 22 23 23 23 25 25 24 23 23 22 22 21 19 18 17 18 19 18 16 15 16 18 19 20 20 20 19 18 18 19 19 19 21 22 21 22 24 25 26 26 25 23 19 13 9
18 17 16 16 16 15 13 13 12 12 12 13 13 13 14 15 16 16 16 17 17 16 17 17 17 17 17 18 18 18 19 19 18 19 20 20 20 21 22 23 23 22 21 22 23 21 20 20 21 21 20 17 15 14 15 16 16 15 13 14 15 16 17 19 20 21 21 20 20 21 21 22 23 23 23 23 24 25 26 25 21 16 13 10 7
19 18 18 18 16 13 12 13 13 13 13 14 15 16 18 18 19 18 18 19 18 18 18 18 17 17 17 17 18 19 21 21 19 19 21 21 21 21 22 22 22 21 20 20 20 20 20 22 24 25 23 19 16 15 15 15 16 15 15 16 18 19 19 20 21 22 23 23 23 22 22 23 23 23 24 23 23 23 22 21 19 16 13 13 14
19 19 18 16 13 11 12 13 13 14 15 17 18 19 19 20 19 19 19 19 18 18 19 19 18 17 17 18 20 22 22 20 19 20 21 21 21 21 22 22 22 22 22 22 21 22 22 22 23 24 22 20 18 17 17 18 18 18 19 20 22 22 22 22 23 23 24 25 26 26 26 26 24 23 23 22 22 22 21 21 21 19 19 19 21
19 18 16 13 11 11 12 14 15 17 18 19 20 19 19 19 19 20 20 20 20 20 20 20 19 19 20 21 22 23 22 19 19 20 22 22 22 22 22 22 23 24 25 25 24 24 23 23 23 22 21 19 18 17 17 17 17 19 21 22 23 23 23 24 25 25 26 27 28 29 29 30 29 29 28 26 25 25 25 25 25 24 23 23 23
17 16 13 11 11 12 14 16 18 19 20 19 19 19 19 20 20 21 21 21 21 20 20 20 21 21 22 21 22 23 22 19 19 22 24 23 23 22 21 21 22 23 24 24 24 24 23 23 24 24 22 20 18 16 16 16 17 19 21 22 21 22 22 23 23 24 26 27 28 29 30 31 31 31 32 32 31 30 29 28 27 25 22 19 19
17 15 11 11 14 15 17 18 19 20 19 18 19 19 20 21 22 22 21 21 21 20 21 21 21 21 21 21 21 22 22 22 23 25 25 23 22 22 21 20 21 22 23 23 22 23 23 23 23 24 23 18 14 12 14 16 17 17 17 19 21 22 23 24 23 24 25 26 27 28 28 28 27 27 26 26 24 22 19 18 18 17 15 11 9
16 14 13 14 16 17 17 18 19 19 19 19 20 21 21 22 21 20 19 20 21 20 21 21 21 21 21 22 21 23 27 29 27 25 24 22 21 20 20 19 20 20 21 21 22 22 23 22 21 21 19 13 10 12 15 15 14 15 18 21 22 23 23 23 23 23 23 24 25 26 27 28 28 27 25 24 22 19 15 14 15 15 13 10 9
16 15 15 17 17 17 18 19 20 20 20 20 20 21 21 21 20 19 19 20 22 22 22 22 23 23 22 24 25 27 30 30 26 23 23 21 20 20 19 19 19 19 20 21 22 22 23 21 19 18 16 12 13 16 15 12 12 17 19 17 17 18 19 19 20 20 20 21 22 23 24 26 26 26 25 25 24 23 22 21 20 19 16 14 15
18 17 17 17 18 20 21 21 21 20 20 20 20 20 20 20 20 20 21 22 23 23 23 22 24 25 25 26 27 27 26 27 25 22 22 21 20 19 19 19 19 19 20 20 21 22 21 20 18 15 14 13 14 13 11 12 16 18 15 12 14 18 19 18 18 19 21 23 23 22 22 22 22 22 22 23 24 24 24 23 22 22 20 19 19
19 20 20 20 21 23 22 21 21 20 19 19 20 21 20 20 20 21 22 23 23 23 23 24 25 27 26 25 25 24 23 24 24 22 20 20 20 19 19 19 18 19 20 21 21 20 18 15 12 10 10 10 9 9 12 17 20 17 14 14 17 20 20 20 20 22 24 24 24 24 24 24 24 23 23 22 21 20 19 19 19 20 19 18 17
21 21 21 22 24 24 23 21 20 19 19 19 21 22 20 20 21 22 22 23 23 24 24 24 24 25 25 24 23 22 22 22 22 21 19 18 19 19 20 19 18 19 19 18 16 15 14 12 10 8 7 7 9 13 17 19 19 18 18 19 21 22 23 24 25 25 24 23 23 23 24 25 25 25 24 23 22 20 19 18 16 16 15 14 14
22 22 23 25 25 23 21 20 19 19 20 20 21 21 21 21 22 21 21 22 23 23 22 22 22 23 23 22 21 20 20 20 20 19 17 17 19 20 21 19 18 17 13 10 9 10 10 10 9 8 8 11 14 17 18 19 19 19 20 21 23 25 26 26 25 24 23 23 22 22 23 23 23 23 23 23 23 23 23 21 20 19 20 20 21
23 23 24 25 23 21 19 19 19 20 21 20 20 21 22 22 21 21 21 20 20 21 21 21 21 20 20 20 20 19 19 19 18 17 16 17 19 20 19 17 16 14 11 8 9 11 11 11 11 12 13 14 15 16 18 20 20 20 20 21 22 24 25 25 25 24 23 22 21 21 22 22 23 23 23 23 23 24 24 25 26 27 27 27 28
23 25 24 23 21 21 21 21 21 20 19 18 20 22 22 21 20 20 20 19 19 20 20 20 19 19 19 20 20 19 18 19 19 18 17 17 18 17 16 15 13 14 13 11 11 12 12 13 13 13 13 13 15 18 20 21 20 19 19 20 22 23 23 23 23 22 21 20 20 20 21 21 20 20 20 21 21 22 23 25 26 27 27 28 29
24 24 22 22 23 23 23 22 20 18 17 17 20 22 21 19 20 20 19 18 19 19 19 19 18 19 18 18 18 19 19 19 19 18 18 18 17 15 14 14 14 13 13 12 11 10 10 10 9 10 12 15 17 18 20 20 20 19 19 20 21 21 21 21 22 21 20 20 20 20 21 22 22 21 21 22 24 24 24 24 24 25 25 25 27
23 22 22 23 24 23 21 20 19 18 19 21 23 23 21 19 19 19 18 18 19 19 19 19 18 17 17 18 19 19 19 19 20 20 20 20 19 18 17 17 16 15 14 14 13 11 10 10 12 14 16 18 18 19 20 20 19 18 18 18 19 19 20 20 21 21 21 22 23 24 26 26 26 25 25 25 25 25 24 23 24 24 24 24 24
22 22 23 23 22 21 20 20 20 21 22 23 23 22 20 18 18 18 19 19 20 21 20 19 18 18 18 19 19 19 19 20 20 20 21 23 23 24 23 20 16 14 13 12 11 11 11 13 16 19 20 20 20 20 20 18 17 16 16 17 17 18 19 19 20 20 21 22 22 23 24 23 23 23 23 22 22 22 21 21 22 23 23 22 20
22 23 23 22 21 21 21 21 22 22 23 23 23 21 19 18 18 20 21 20 20 21 21 20 20 20 19 19 19 19 19 20 20 21 23 25 26 26 27 24 19 13 9 7 8 10 13 16 19 20 20 20 20 19 17 16 15 15 15 16 17 17 18 18 19 19 19 19 20 20 20 20 20 21 21 21 22 21 21 21 22 22 23 21 19
23 22 21 21 21 22 22 22 22 22 23 24 24 22 19 17 17 20 22 21 20 20 21 21 21 21 21 20 20 19 20 22 23 23 25 26 26 26 25 22 17 11 6 5 9 13 16 17 18 18 18 18 17 16 15 15 15 15 15 16 16 17 17 18 18 18 19 20 20 21 21 20 21 21 21 21 21 21 21 21 21 22 21 19 18
22 21 21 21 21 21 21 22 22 22 23 24 22 21 19 17 17 19 20 21 21 20 20 20 20 20 21 21 20 19 20 22 23 23 24 24 25 24 20 16 13 9 6 7 10 13 15 15 16 16 16 16 15 15 15 14 14 15 16 17 17 16 17 18 18 19 21 22 22 22 21 21 21 21 21 21 21 21 22 21 21 22 21 20 19
22 22 22 22 21 21 21 22 22 22 22 21 20 19 18 18 19 20 20 20 19 19 19 19 19 19 19 19 19 19 20 22 22 22 22 22 22 20 17 13 10 9 9 10 11 12 12 12 14 15 15 15 15 15 14 14 14 15 16 18 18 17 18 18 19 20 21 21 21 21 20 19 19 19 19 18 18 19 20 20 20 20 20 20 20
24 24 23 23 22 22 21 21 20 20 20 20 20 18 16 17 19 21 21 20 18 18 17 17 18 18 18 18 18 20 21 21 21 20 19 19 18 15 12 10 8 9 11 11 10 9 10 11 13 14 15 15 15 15 14 15 15 16 17 18 19 19 19 19 19 20 20 19 19 19 19 19 19 19 19 20 20 20 20 20 21 20 19 19 19
24 24 23 22 22 21 19 19 20 20 20 20 19 18 17 18 19 20 20 19 18 18 17 17 17 17 18 19 19 19 19 18 18 18 17 17 15 11 9 10 10 10 10 9 8 9 11 12 12 12 14 15 15 15 15 16 17 18 18 19 19 20 21 20 20 20 19 19 19 19 20 20 20 20 20 21 21 20 20 20 20 20 19 18 17
24 23 22 21 19 18 18 20 21 21 20 19 18 18 19 19 19 18 18 17 18 18 18 18 17 17 19 19 18 17 17 18 19 18 17 16 14 10 9 10 10 8 8 8 9 11 11 11 11 13 14 15 15 16 16 17 18 18 19 20 21 21 21 21 21 20 20 20 20 21 20 20 20 20 21 21 21 20 20 20 19 19 19 19 18
25 23 21 19 17 17 19 20 21 20 19 19 19 19 19 18 18 17 17 18 18 18 18 19 19 18 18 17 15 16 19 20 20 19 17 16 14 10 9 9 8 8 9 10 10 10 11 11 12 14 15 15 16 16 17 18 19 19 20 20 21 21 22 21 21 21 21 21 21 21 21 20 21 21 21 21 21 20 20 20 20 19 19 19 18
24 22 20 19 18 18 19 19 19 19 19 19 18 19 18 18 17 17 17 17 17 17 18 19 19 19 18 16 16 18 21 21 20 18 15 12 9 8 8 8 8 10 11 10 9 10 11 12 14 15 15 16 17 17 19 19 20 20 20 20 20 21 21 21 20 20 21 21 21 21 21 20 21 21 20 20 20 20 20 20 19 18 19 20 20
22 20 20 20 20 19 18 18 18 19 18 18 18 18 18 17 17 17 17 17 17 17 18 18 19 19 19 18 18 19 21 21 20 19 17 16 13 12 11 10 10 11 11 10 9 11 12 13 14 15 16 17 18 19 20 20 20 20 20 20 21 21 21 20 20 20 20 21 21 21 20 21 21 21 20 20 20 21 20 20 19 19 19 19 18
21 20 19 20 19 18 18 18 18 18 18 18 18 18 17 17 16 16 17 17 17 17 18 18 19 19 19 19 19 19 19 20 20 20 19 18 16 15 14 12 11 11 11 11 11 12 13 14 16 17 18 19 20 20 20 20 20 20 20 20 22 22 21 21 21 21 21 21 21 21 21 21 21 21 20 20 20 20 20 21 19 16 13 12 10
21 20 20 20 19 18 18 18 18 18 18 18 18 18 17 17 16 17 18 18 18 18 18 18 19 19 19 19 18 18 18 19 19 19 18 17 17 16 15 14 12 12 12 12 11 12 14 17 19 20 20 20 20 20 20 20 20 20 21 21 22 22 21 21 21 21 21 22 22 21 21 21 21 21 21 21 20 19 20 21 20 16 12 11 11
22 20 19 19 19 19 19 18 17 18 18 18 18 18 18 17 18 18 18 18 17 18 18 18 19 19 18 18 17 17 18 18 19 17 16 16 17 16 16 14 13 13 13 13 13 15 18 20 21 21 21 21 21 21 21 21 21 21 22 22 21 21 22 22 21 21 21 21 21 21 21 20 20 20 21 20 19 19 19 19 19 18 15 13 12
21 20 19 19 19 19 19 18 18 18 18 18 18 18 18 18 18 18 18 17 17 18 18 19 19 19 18 17 17 17 16 17 17 16 16 16 16 16 15 14 14 14 15 15 17 19 21 22 21 21 22 22 22 22 22 22 22 22 22 22 21 21 22 22 21 21 20 20 20 20 20 21 20 19 19 19 18 18 18 18 18 18 16 14 14
19 18 19 19 19 19 18 18 18 18 18 18 19 18 18 18 18 18 17 17 18 18 18 19 19 19 19 18 17 16 16 16 16 16 16 16 16 15 15 15 15 16 17 18 20 21 21 21 22 22 23 23 23 23 23 23 23 22 22 22 22 21 21 21 21 20 19 20 20 20 21 21 20 19 18 17 17 17 17 17 17 17 16 15 15
17 18 18 18 18 18 18 18 18 18 19 19 19 18 18 19 19 18 18 18 18 18 18 19 20 20 20 19 17 17 16 16 16 17 17 16 16 16 16 17 17 17 18 20 21 21 20 21 22 23 23 23 23 22 22 22 21 21 21 21 21 21 20 20 19 19 19 20 20 21 21 21 20 19 18 17 16 17 17 17 17 17 17 17 16
17 18 18 18 18 18 18 18 18 19 19 19 19 19 19 19 19 18 18 18 18 18 19 20 19 19 19 19 18 17 17 17 18 18 18 18 18 18 18 18 18 19 20 22 22 21 21 21 22 23 23 23 22 21 21 20 19 18 18 18 19 19 19 19 19 19 19 19 20 21 22 22 21 20 18 17 17 17 17 17 17 18 18 18 17
16 17 18 17 18 19 19 19 19 19 19 19 19 19 20 19 19 19 18 18 18 19 19 19 19 19 19 19 19 18 19 19 19 19 19 19 19 19 19 19 19 20 22 23 23 22 22 21 20 21 21 21 21 20 19 18 16 15 15 15 16 17 18 18 19 19 19 19 21 22 22 22 21 20 19 19 19 18 17 18 19 19 18 18 18
16 17 17 18 18 19 19 19 20 20 19 19 19 19 20 19 19 19 18 18 18 19 19 19 19 19 19 19 19 19 19 19 19 20 19 19 19 19 19 20 20 22 23 23 22 22 21 20 19 19 19 19 19 18 17 17 16 16 15 15 16 17 18 18 18 19 20 21 22 23 22 22 22 22 21 21 20 19 19 20 20 19 19 18 18
16 17 18 18 18 19 19 20 20 20 20 20 20 20 20 19 19 19 19 18 19 19 20 19 19 20 20 20 19 19 19 20 20 20 20 20 20 19 19 20 21 22 23 23 22 21 20 19 18 17 17 17 18 18 18 17 17 17 17 18 18 17 17 17 18 20 22 22 22 21 21 21 21 21 21 21 20 20 21 21 20 20 19 19 18
16 17 18 18 18 19 19 20 20 20 21 20 20 20 20 19 19 20 19 19 19 20 19 19 20 20 20 20 20 20 20 20 21 21 21 20 20 20 20 21 22 22 23 23 22 21 19 18 17 17 18 18 18 18 18 18 18 18 19 19 18 18 18 19 20 21 21 20 20 20 19 19 20 20 20 21 21 20 21 20 20 20 19 18 18
17 18 18 18 19 19 20 20 20 21 21 21 20 21 20 20 20 20 20 20 20 20 20 20 20 20 20 20 20 20 21 20 20 21 21 21 21 21 21 22 22 23 23 23 22 21 20 19 19 19 18 18 18 18 18 19 19 19 19 19 19 20 20 20 20 19 19 18 18 18 18 19 20 20 20 20 20 19 19 19 18 18 18 18 18
17 17 18 19 19 20 20 21 21 21 22 21 21 21 21 20 21 21 21 20 21 21 21 21 20 20 20 20 20 20 20 20 20 21 22 22 22 23 23 23 23 23 23 23 23 22 21 21 20 19 18 18 18 18 18 19 19 19 19 20 20 20 19 18 18 19 18 18 17 17 17 18 19 19 19 19 18 18 19 18 18 18 19 18 17
Wind_Direction
47 47 48 49 48 46 45 43 42 39 36 35 36 33 25 18 11 11 16 5 357 356 348 342 337 331 328 325 323 319 314 310 307 302 297 292 289 287 287 288 288 291 290 285 283 285 288 288 285 281 279 277 273 270 268 266 265 265 266 269 271 271 267 260 258 268 269 269 270 271 270 267 264 263 263 263 262 262 262 256 251 247 245 248 252
41 41 42 43 43 43 41 38 37 38 33 26 26 24 20 15 1 357 4 354 348 351 346 340 335 331 330 329 328 326 321 317 314 310 305 300 296 293 293 295 294 293 294 292 289 288 288 286 284 284 283 282 280 278 277 275 275 274 272 271 272 272 272 272 272 275 274 274 274 274 273 268 262 260 261 264 268 272 273 266 256 252 252 255 257
33 33 33 33 33 34 32 28 25 28 26 18 14 10 5 4 355 350 353 344 338 340 337 336 333 327 328 329 327 323 317 315 313 311 310 308 304 300 297 297 297 296 294 293 291 289 287 286 283 283 285 285 282 281 282 282 282 283 281 278 277 275 273 274 276 278 278 279 278 277 276 272 266 264 263 264 267 272 275 270 261 258 260 261 261
25 24 23 21 22 24 24 21 16 17 16 10 7 359 348 347 344 339 338 333 331 333 332 332 327 323 325 324 321 317 311 309 308 307 306 306 304 301 300 297 294 293 290 289 288 287 287 285 283 284 285 285 283 281 282 281 280 281 280 279 280 280 278 276 275 276 277 278 277 276 277 276 273 271 269 267 265 267 271 270 265 262 261 260 258
17 14 12 10 10 15 17 15 10 6 3 359 357 351 344 338 331 330 331 324 322 327 330 328 323 322 324 320 316 312 308 306 307 306 303 300 299 299 298 295 291 289 287 286 286 286 285 283 282 283 283 282 281 279 278 277 276 277 277 277 278 280 281 280 279 279 279 279 278 276 276 276 275 272 269 268 267 266 265 267 270 270 267 263 258
8 2 4 1 354 360 9 6 360 353 350 350 349 344 343 339 331 332 332 324 323 326 324 320 319 320 320 315 309 307 307 307 305 303 300 298 299 298 294 291 289 289 288 288 287 286 284 283 282 281 280 278 277 277 277 277 277 276 276 277 279 282 284 282 281 280 278 276 277 277 276 275 275 271 267 267 267 265 263 265 268 268 267 265 264
1 351 355 353 340 343 357 352 343 339 339 341 341 336 337 336 332 331 329 324 324 325 321 316 315 316 315 310 307 308 308 305 302 302 303 302 300 296 293 294 295 295 294 292 290 287 284 282 282 281 280 278 277 278 278 278 278 276 275 277 278 277 277 277 277 275 272 270 268 269 269 270 271 272 271 268 264 262 263 267 267 264 261 261 262
357 346 347 347 338 337 344 339 333 332 334 332 327 323 323 324 324 324 323 320 319 319 316 313 312 313 311 307 308 310 306 303 303 304 304 303 300 299 300 302 302 299 296 292 289 287 283 282 281 279 277 276 276 276 276 276 275 274 274 278 279 277 273 272 271 269 267 266 264 265 266 267 267 268 267 264 259 260 265 267 265 262 259 258 259
347 339 339 340 335 334 334 331 327 327 330 329 323 319 317 317 318 318 317 316 314 312 309 309 311 310 308 307 307 307 303 302 302 302 303 304 303 302 301 299 297 293 291 289 286 284 282 281 280 278 276 275 275 274 272 271 270 272 278 284 287 290 288 283 276 271 269 267 266 266 264 262 263 263 261 259 262 267 269 267 265 264 262 259 256
338 334 335 334 331 328 323 322 322 324 328 327 325 323 319 317 316 313 312 310 308 307 305 307 307 304 304 305 303 302 300 297 298 299 301 300 299 299 297 294 292 289 286 285 284 283 280 278 278 278 276 274 271 270 269 270 275 282 287 289 288 290 292 291 289 288 286 283 280 278 274 268 264 261 260 263 267 268 266 264 263 262 259 256 253
332 329 328 325 323 321 319 322 326 330 332 329 328 327 322 321 318 314 312 308 304 301 300 299 296 295 297 299 298 298 296 294 297 300 300 299 297 296 294 291 288 284 282 280 279 278 277 276 276 277 274 270 267 267 272 279 283 284 285 289 287 286 286 287 287 286 284 281 280 277 274 272 269 265 264 266 266 264 263 262 260 257 252 250 251
326 322 320 318 319 321 325 330 333 333 331 328 327 324 321 319 316 312 310 307 303 300 296 294 291 290 291 291 289 289 289 292 297 298 298 298 297 295 292 289 285 282 279 278 276 278 282 283 283 284 283 280 278 279 280 281 283 282 283 287 286 282 282 281 281 281 279 276 274 270 266 266 267 266 266 266 263 262 261 259 258 256 255 258 259
319 315 314 315 318 324 331 334 334 333 331 327 323 320 318 316 313 310 309 306 303 299 297 296 293 289 289 288 287 288 290 293 294 294 296 298 297 296 295 293 290 287 284 282 283 287 290 288 286 285 284 282 281 280 277 278 282 284 284 285 284 282 280 277 276 277 278 279 280 279 277 274 272 268 265 264 262 259 258 257 259 261 264 265 265
314 311 310 314 321 331 336 336 334 330 325 322 319 316 314 312 310 310 308 306 303 300 299 298 294 291 291 291 291 291 291 293 293 292 296 299 298 299 298 296 293 291 290 290 291 290 288 285 282 278 274 273 276 279 280 280 282 284 287 288 287 285 282 278 277 275 275 277 279 281 281 280 280 278 275 270 263 257 256 257 260 263 265 266 268
313 311 314 323 334 341 340 335 329 323 319 316 315 313 312 310 310 310 308 304 301 299 298 296 294 293 294 294 294 292 291 292 294 295 298 300 300 300 299 296 292 289 288 287 287 286 283 282 280 276 273 272 273 275 278 281 285 290 293 292 290 288 285 282 280 278 276 276 276 277 279 278 278 277 275 272 267 261 259 258 259 262 264 266 269
317 317 325 338 343 341 336 329 322 318 314 312 312 311 311 309 308 308 306 302 300 298 296 295 294 295 296 295 294 292 292 294 297 299 300 300 300 300 298 295 292 288 287 286 286 285 281 279 279 277 274 271 271 272 274 281 290 293 293 293 293 293 291 288 286 283 281 279 277 276 278 279 278 275 271 268 266 263 260 256 256 258 260 263 265
320 324 336 341 337 332 327 323 317 313 310 309 309 309 309 307 306 306 304 302 301 299 297 296 295 296 297 297 295 293 294 297 299 300 299 298 300 300 297 296 293 290 288 287 286 285 281 278 278 275 270 266 268 275 277 284 294 300 304 307 305 302 300 299 297 292 288 286 285 286 287 289 289 287 283 280 278 275 270 264 264 264 262 263 262
325 332 337 332 328 325 321 317 312 309 308 308 307 306 306 305 305 305 303 301 301 300 299 298 297 297 297 296 295 295 295 298 300 298 297 297 299 298 297 296 293 291 290 289 287 286 282 278 276 273 268 266 275 284 283 286 301 314 314 308 302 300 302 303 303 302 299 297 296 297 298 297 298 298 296 294 293 293 289 284 281 275 264 261 262
329 330 328 325 322 320 317 313 309 306 305 304 304 305 304 304 304 303 301 300 299 298 298 297 295 296 296 294 294 295 296 299 301 298 296 298 299 298 298 298 295 293 292 290 288 287 285 283 279 273 271 277 285 285 280 285 307 313 309 307 308 309 309 311 314 316 316 314 312 308 304 301 300 300 297 292 290 290 291 289 285 274 262 260 263
327 324 322 321 319 316 312 308 304 303 302 301 302 303 303 301 301 301 299 298 297 295 294 293 293 294 295 294 295 296 295 298 299 298 297 298 298 298 299 298 296 295 293 291 288 288 288 287 282 274 272 277 282 284 281 290 303 307 313 324 321 311 310 317 322 322 318 315 314 313 310 306 305 305 301 295 289 288 289 289 286 277 266 260 259
323 320 317 316 315 313 309 304 302 301 299 300 302 302 300 299 299 299 298 297 296 294 293 293 292 293 295 295 295 296 296 297 297 297 297 298 299 301 302 299 296 293 289 286 284 286 291 293 291 287 282 281 289 297 294 295 302 313 324 321 308 305 312 321 321 316 312 308 305 304 303 302 302 303 304 302 297 293 290 287 283 278 268 259 259
321 317 313 312 313 311 307 303 302 300 299 302 303 300 299 299 299 298 298 297 295 294 294 294 292 292 294 295 295 296 298 298 298 296 296 298 302 305 305 301 296 290 287 285 286 289 294 299 304 308 304 300 301 299 296 300 310 320 318 308 306 312 316 316 313 310 306 301 297 294 292 291 291 292 294 295 295 294 296 293 285 279 272 267 272
319 314 310 311 311 309 305 304 303 301 300 302 302 299 299 300 300 299 299 297 296 295 296 297 295 293 294 297 298 299 300 300 300 299 298 301 305 306 305 303 298 293 294 302 309 309 311 314 318 315 305 300 298 298 304 313 319 318 312 309 311 314 313 311 309 305 299 294 290 286 283 281 281 282 283 284 286 287 290 292 290 287 284 282 284
317 313 311 311 310 308 307 306 303 301 300 300 301 301 300 300 300 301 301 298 297 298 299 299 298 297 299 301 303 303 303 304 306 306 304 305 307 308 308 308 303 300 305 314 311 308 308 310 307 301 298 299 303 309 316 319 317 313 312 312 312 311 310 309 307 302 296 291 285 280 279 278 277 278 278 279 281 282 282 283 285 287 288 287 287
317 315 314 313 312 310 308 306 304 301 301 302 305 303 300 298 299 302 302 300 299 300 300 300 301 302 302 302 303 307 310 310 312 312 309 308 309 311 312 314 309 305 308 311 306 300 297 295 294 297 303 313 319 319 316 315 313 310 309 310 309 308 307 305 304 300 295 290 286 284 283 284 283 283 284 285 286 286 285 285 285 285 286 285 285
318 317 315 314 313 311 308 306 306 305 305 308 308 303 297 296 299 300 300 300 300 300 302 303 304 302 301 303 308 312 313 313 312 311 310 310 312 314 317 322 322 318 320 324 320 314 312 312 317 324 325 323 319 314 309 308 308 306 306 307 307 306 306 306 304 301 297 295 296 294 294 295 295 293 293 294 293 293 292 292 291 290 289 286 284
319 316 314 315 313 311 309 308 309 310 310 310 308 302 295 293 295 296 297 300 301 300 301 301 300 300 303 307 310 311 312 312 310 308 310 314 318 319 317 317 317 318 322 326 323 318 318 323 325 325 322 317 312 307 305 305 305 305 307 308 307 307 307 306 304 301 298 297 297 296 296 297 294 292 291 290 288 287 287 288 288 288 288 286 282
320 316 316 315 312 311 311 310 311 311 311 309 305 301 297 295 295 295 296 297 297 294 293 291 293 298 302 304 306 307 306 306 305 305 308 313 317 316 311 307 307 307 309 314 315 308 308 314 318 319 319 315 310 306 305 305 307 309 310 310 310 309 309 308 306 303 302 301 300 299 299 297 294 293 292 290 289 290 292 292 290 289 290 290 285
321 318 316 313 311 311 311 310 310 309 309 308 304 300 298 299 299 300 299 298 294 290 287 286 288 291 293 295 298 300 300 299 299 301 303 304 306 305 301 298 297 297 300 312 314 309 313 319 321 320 317 311 306 305 307 310 312 312 313 314 314 314 314 313 313 312 313 314 313 311 310 308 305 304 301 299 297 296 294 293 291 291 291 289 284
320 317 315 312 312 312 310 308 309 308 307 306 302 299 298 297 299 303 304 302 298 294 291 290 289 290 291 292 293 293 294 297 299 298 298 299 298 297 297 297 294 292 308 332 318 315 322 324 320 315 310 306 306 309 312 316 317 316 317 317 315 315 315 315 319 323 325 324 322 319 317 314 312 310 308 305 302 299 296 293 292 292 291 286 283
322 317 316 313 312 311 309 308 309 307 306 304 302 301 303 303 303 305 305 304 303 302 300 298 296 295 295 296 297 297 297 299 300 299 298 297 296 295 299 302 295 289 314 336 323 320 325 321 313 312 310 308 310 314 316 318 319 319 318 316 314 314 314 316 321 325 324 323 320 317 314 310 307 304 302 299 296 295 294 292 290 289 287 285 284
322 315 314 311 310 309 307 306 306 306 306 307 307 307 310 312 311 310 309 307 307 307 307 306 305 303 301 300 303 306 305 303 302 299 298 298 297 297 298 299 292 292 313 327 322 320 322 316 311 313 314 314 316 318 318 320 320 318 317 315 313 312 310 311 315 318 318 317 315 313 313 311 308 306 303 302 302 301 298 295 290 285 281 280 280
320 315 312 310 309 309 308 308 309 310 312 312 312 313 317 318 315 312 311 311 310 310 311 311 311 310 310 310 309 309 308 306 304 303 302 301 302 304 306 305 303 306 314 320 321 320 318 312 309 310 313 316 319 319 319 320 318 315 313 310 308 307 305 306 309 311 312 311 310 312 314 314 313 312 311 309 308 304 299 295 290 284 279 275 274
321 316 313 312 312 313 317 321 320 317 316 315 316 319 321 317 312 309 311 315 317 317 316 316 316 317 317 316 312 310 312 314 312 310 307 302 300 309 322 322 316 312 312 318 325 324 317 312 310 312 315 317 318 318 317 315 313 312 310 307 305 304 303 304 305 305 306 306 306 307 309 309 309 308 307 305 303 299 295 292 288 284 280 275 272
323 320 317 316 316 320 326 326 320 316 315 316 318 318 315 311 308 308 312 317 319 317 317 319 322 322 320 317 316 319 324 324 319 315 309 300 297 311 330 327 321 320 318 318 320 319 317 317 317 317 317 316 316 315 313 311 309 309 308 306 305 304 303 303 303 302 302 302 301 302 303 303 304 304 303 301 298 294 291 288 286 283 281 279 278
326 323 320 320 322 324 324 322 318 316 316 317 316 314 311 310 311 313 315 317 314 313 317 322 325 325 323 322 325 329 330 327 321 316 308 295 293 311 335 337 337 337 329 321 318 317 317 319 319 317 314 313 312 311 308 307 307 306 305 304 304 304 304 304 303 302 300 298 297 298 299 300 302 303 303 300 297 293 290 285 281 278 277 276 278
329 326 324 325 328 328 324 320 319 319 318 317 316 316 315 317 317 317 317 316 315 316 322 325 326 325 326 329 333 333 330 327 326 326 325 320 322 338 349 348 346 338 327 321 321 322 320 318 315 313 312 310 309 307 306 305 305 305 305 304 303 302 303 303 302 301 300 299 298 298 299 299 301 303 303 301 300 298 294 287 280 277 277 274 272
332 329 328 329 330 329 325 323 322 321 321 321 322 323 323 322 320 320 319 319 320 321 322 323 323 323 324 328 333 334 332 332 334 340 347 353 356 355 350 344 337 329 322 319 321 320 318 315 312 310 308 306 305 304 304 304 305 305 304 302 302 301 300 300 300 301 302 302 302 301 301 300 301 303 304 303 302 301 300 295 285 276 276 277 271
334 331 330 330 329 328 326 325 324 325 328 328 327 327 325 322 322 324 324 322 321 320 320 320 320 321 322 326 329 332 334 335 334 335 338 342 342 341 339 334 327 322 320 319 317 315 313 312 309 306 304 303 303 304 304 304 304 303 301 301 301 300 299 299 300 301 302 303 302 302 301 300 301 304 305 304 302 302 304 306 302 291 287 295 297
334 332 331 331 331 330 329 328 327 330 333 331 329 328 327 326 326 326 323 320 318 318 319 319 319 320 323 325 326 329 331 330 327 326 329 331 330 330 330 327 323 322 320 317 313 311 311 309 307 305 304 303 303 303 304 303 301 300 300 300 299 298 298 299 299 301 302 302 302 302 302 302 303 306 306 306 306 306 308 313 320 325 327 327 327
334 332 332 333 333 332 331 331 332 334 333 331 330 330 328 326 325 323 321 319 318 318 319 319 319 322 324 325 326 328 329 327 325 326 328 327 326 326 328 328 327 326 322 317 312 310 309 308 307 306 304 303 302 303 303 302 301 300 300 299 298 296 296 297 298 300 301 302 303 305 304 304 305 306 306 307 310 314 315 318 324 329 330 328 327
336 335 335 336 336 335 335 335 335 335 333 331 330 329 326 324 323 322 321 320 320 320 320 320 321 323 325 326 327 328 328 329 330 330 328 326 325 324 325 325 323 320 317 313 310 308 308 307 306 303 301 300 301 303 302 301 301 300 299 297 296 295 295 296 298 300 301 303 304 305 305 306 307 307 307 309 312 316 319 321 324 329 331 331 331
337 337 337 337 336 336 336 336 335 334 333 331 329 328 327 327 327 325 323 322 322 322 322 322 322 324 325 326 328 329 329 329 328 326 324 323 322 320 318 316 314 311 309 307 306 307 308 306 303 301 301 301 302 302 301 301 300 299 298 296 295 294 295 296 298 301 303 304 305 305 306 307 309 309 310 312 315 318 320 321 324 329 331 329 328
337 337 337 337 337 337 337 336 334 332 331 330 329 328 329 329 329 328 326 324 323 323 323 323 323 324 326 328 329 329 328 326 324 323 322 320 319 317 315 313 312 310 308 308 311 313 312 308 305 304 304 304 304 304 304 303 301 298 296 294 292 291 292 293 296 299 302 303 304 305 307 308 309 310 310 312 314 316 318 320 321 323 324 324 322
337 339 339 338 338 338 337 336 335 333 332 331 330 329 330 330 330 328 327 325 323 322 323 324 324 324 325 327 327 327 325 323 322 321 320 318 317 316 315 315 314 312 311 313 317 318 315 311 308 307 306 308 309 309 308 308 306 302 297 292 289 289 292 295 298 301 302 300 300 303 304 305 305 306 307 308 310 310 311 312 314 313 313 314 314
341 341 341 339 338 338 337 336 336 335 334 333 332 331 331 331 330 329 328 326 325 324 324 324 325 324 324 324 325 324 324 324 324 323 321 320 319 318 318 317 315 314 315 318 320 320 319 316 313 310 309 310 312 312 312 312 311 308 305 301 296 294 297 300 300 299 296 294 297 301 302 301 302 302 303 305 308 307 305 304 305 306 307 308 309
344 343 341 339 339 338 337 337 336 335 334 333 333 332 331 331 330 330 329 326 325 326 326 325 325 325 325 324 324 324 324 324 324 324 324 322 321 320 319 318 316 317 320 322 324 324 323 321 318 314 312 312 313 314 315 316 316 315 313 309 303 299 299 298 294 291 291 294 299 301 300 297 297 298 301 303 304 304 304 304 305 307 308 308 308
346 344 342 340 339 338 337 337 337 336 335 334 333 333 332 332 331 331 330 328 327 328 328 327 326 326 325 325 326 325 325 325 325 325 325 325 324 323 321 320 320 321 324 326 329 329 328 325 323 320 318 317 317 317 317 318 319 317 314 310 306 302 299 295 293 295 298 301 302 300 296 295 295 296 298 301 302 303 305 306 306 308 309 310 310
346 344 343 341 339 339 338 338 337 337 336 334 333 333 332 332 332 332 331 330 329 329 328 327 327 327 328 328 328 327 326 325 325 326 326 327 327 326 325 324 325 326 328 330 332 333 332 331 330 327 325 322 320 319 319 318 317 315 312 310 308 305 301 299 300 301 304 305 304 300 297 295 295 295 295 297 299 301 303 304 305 307 309 309 309
346 343 342 341 339 338 339 338 337 337 337 335 334 333 332 331 331 332 332 331 331 331 331 330 329 330 330 330 329 328 327 327 327 328 328 329 329 330 329 328 329 331 332 332 334 335 335 335 333 330 327 325 323 321 319 317 314 312 311 310 307 305 305 305 304 303 303 304 304 301 297 294 293 294 294 295 297 299 301 302 304 305 305 304 305
346 344 342 341 339 339 339 338 337 338 337 337 336 334 333 332 331 332 333 333 332 332 333 334 332 331 331 331 330 330 330 331 331 331 331 331 332 332 331 332 333 333 334 335 336 337 336 335 334 332 331 329 326 323 319 316 314 312 310 308 306 306 306 304 301 301 303 303 301 297 295 294 293 294 294 295 295 296 297 298 299 299 299 299 301
Height
797 798 797 797 796 795 795 795 794 794 793 793 792 791 791 790 790 790 789 789 788 787 787 786 785 785 784 784 783 782 781 780 780 779 779 778 778 778 777 777 776 776 775 775 775 775 774 774 775 775 775 775 775 775 775 775 775 774 775 774 773 774 774 773 771 766 765 765 764 764 766 766 766 766 766 765 765 765 764 764 764 763 763 763 763
799 799 798 798 797 797 797 796 796 795 794 794 793 793 792 791 791 790 790 789 788 788 787 786 785 784 784 783 783 782 781 780 779 779 778 778 777 777 777 776 775 775 774 774 773 773 773 772 772 773 773 773 773 773 772 772 773 772 772 772 770 771 771 771 769 766 763 762 762 761 761 762 761 762 762 762 762 762 761 761 760 760 759 759 759
801 800 799 799 798 798 797 796 796 796 795 794 793 793 793 792 791 790 789 789 788 788 787 786 785 784 783 783 782 781 780 779 779 778 778 777 777 776 776 775 775 774 774 773 773 773 772 772 771 771 772 771 770 771 770 770 770 770 769 769 768 768 768 768 767 765 762 760 759 758 758 758 758 758 758 758 759 759 758 757 756 756 755 755 755
802 801 800 800 799 798 798 797 796 796 795 795 794 793 793 792 791 790 789 789 788 787 786 785 784 783 782 782 781 780 779 778 778 777 777 776 775 775 775 774 774 773 773 772 772 772 771 771 770 770 770 770 769 769 768 768 768 768 767 766 766 765 766 765 764 763 760 758 757 756 755 755 755 755 755 755 755 755 754 753 753 752 751 751 751
803 802 801 801 800 799 799 798 797 797 796 796 795 794 793 792 791 790 789 788 787 786 785 784 783 782 781 781 780 779 778 777 777 776 775 775 774 774 773 773 772 772 771 771 771 770 770 769 769 769 769 768 767 767 767 766 766 765 764 763 763 763 763 762 761 760 759 756 755 754 753 752 752 752 753 752 751 751 751 750 749 749 748 748 748
804 803 802 802 801 800 799 798 797 797 796 796 795 794 793 792 791 790 789 788 787 786 785 783 782 782 781 780 779 778 777 776 776 775 774 774 773 772 772 771 770 770 769 769 768 768 768 767 766 766 766 765 765 764 763 763 762 762 761 761 761 761 760 759 759 758 757 755 753 752 751 750 749 749 749 749 748 747 746 746 745 746 745 744 744
804 804 803 802 801 800 799 798 798 797 796 796 795 794 793 792 791 790 789 788 786 785 784 783 782 781 780 779 778 777 776 775 774 774 773 772 771 770 770 769 768 767 766 766 766 765 765 764 764 763 763 762 762 761 760 760 759 759 759 759 758 758 757 757 756 756 754 752 751 750 748 748 746 745 746 747 745 744 743 742 741 742 742 741 740
804 804 803 802 801 800 799 798 798 797 796 795 795 794 793 792 790 789 788 787 786 785 784 782 781 780 779 778 777 776 775 774 773 773 772 771 770 769 768 767 766 765 764 763 763 763 762 761 761 760 760 759 759 758 758 757 757 757 757 756 756 755 754 754 753 752 751 749 747 746 745 744 743 742 742 742 741 740 740 740 738 738 738 737 736
804 804 802 802 801 800 799 798 797 796 795 795 794 793 792 791 790 789 788 787 786 784 783 782 780 779 778 777 776 775 774 773 772 772 771 770 769 768 766 766 764 763 762 761 761 760 759 759 758 757 757 756 756 756 755 755 755 754 754 754 753 753 752 751 750 749 747 745 744 743 741 740 739 739 738 738 737 737 737 737 735 734 734 733 732
804 803 802 801 801 799 799 798 796 795 794 794 793 792 792 791 789 788 787 786 785 784 782 781 780 779 777 776 775 774 773 772 772 771 770 769 768 766 765 764 763 762 760 759 758 757 756 755 755 754 754 753 753 753 752 752 751 751 751 751 751 751 751 750 748 747 745 743 741 740 739 736 736 736 735 734 735 735 734 733 731 731 731 729 728
804 803 802 801 800 799 798 797 795 794 794 793 793 792 791 790 789 788 786 785 784 783 782 780 779 778 777 775 774 773 772 771 770 769 769 768 766 765 763 762 761 759 758 757 755 754 753 752 752 751 751 750 750 750 749 749 748 748 748 749 749 749 749 748 746 745 744 742 740 739 737 735 734 733 732 731 732 731 730 729 728 727 727 725 725
804 803 801 800 799 798 797 795 794 794 793 792 792 791 790 789 788 787 785 784 783 782 780 779 778 777 776 774 773 772 771 770 769 768 766 766 764 763 761 759 758 757 756 755 753 751 750 750 749 749 748 748 747 747 746 746 746 746 746 747 747 747 747 746 745 743 742 740 738 736 734 732 731 730 729 729 728 728 727 726 725 724 723 723 723
804 802 801 800 798 797 796 795 794 793 793 792 791 790 789 788 787 785 784 783 781 780 779 777 776 775 774 773 771 770 769 768 768 766 765 763 762 760 759 757 755 754 753 752 750 749 748 747 746 746 746 746 745 745 744 744 744 744 744 744 744 744 743 743 742 741 740 737 735 732 731 730 728 726 726 726 725 724 723 722 721 721 720 720 720
803 801 800 798 797 796 795 794 794 793 792 791 790 789 788 787 785 784 782 781 779 778 777 775 774 773 772 771 769 768 767 766 765 764 763 761 760 758 757 755 753 751 750 749 748 747 746 745 744 743 743 743 742 742 742 742 742 742 742 741 741 740 739 739 738 737 736 735 732 730 729 728 725 724 723 723 722 721 720 719 718 717 717 717 718
802 801 799 798 796 796 795 794 794 793 792 791 789 788 787 785 784 782 781 779 778 776 775 773 772 771 770 769 767 765 765 764 763 762 760 759 757 756 754 752 750 749 747 746 745 745 744 743 741 740 739 739 740 740 740 740 739 739 738 737 737 736 735 734 734 733 732 730 729 727 725 724 723 721 720 720 719 717 717 716 715 715 715 714 715
802 800 799 797 796 796 795 794 793 792 791 790 788 787 786 784 782 781 779 777 776 774 773 771 770 769 767 766 765 763 762 762 761 759 758 756 754 753 751 749 748 746 744 743 743 741 740 740 738 737 737 736 736 737 737 737 737 736 735 734 733 732 731 730 730 728 727 725 724 722 721 720 718 717 716 716 715 714 713 712 712 712 712 711 711
802 800 798 797 796 796 795 794 793 792 790 789 787 786 784 783 781 780 778 775 774 772 771 769 768 767 765 764 763 760 759 759 759 756 755 753 752 750 748 746 745 743 742 741 740 738 737 736 735 734 734 733 733 734 734 734 734 733 731 730 729 728 727 726 726 724 723 721 720 718 717 715 714 713 712 712 711 711 711 710 709 710 709 709 708
802 800 798 798 797 795 795 794 792 791 789 787 786 784 783 781 780 778 776 774 772 771 769 767 766 765 763 762 761 759 756 755 755 753 751 750 749 747 746 744 742 741 739 738 737 736 734 733 733 732 731 730 730 731 732 732 731 730 729 728 727 725 724 724 722 721 719 718 716 714 713 711 710 709 709 708 708 708 708 708 708 708 707 707 706
802 800 799 798 796 795 794 793 791 789 788 786 785 783 781 780 778 777 775 773 771 769 767 766 764 762 761 760 758 757 754 752 752 750 749 747 746 745 743 742 740 739 737 736 734 733 732 731 730 729 729 728 728 729 729 729 729 729 728 726 725 723 723 722 720 718 717 715 714 712 711 709 708 707 706 705 705 705 705 705 705 704 704 703 703
802 800 798 797 796 794 793 792 790 788 786 784 783 782 780 778 776 775 773 771 769 767 766 764 761 760 759 757 756 754 752 750 749 748 747 745 744 743 741 739 738 737 735 734 732 731 730 729 728 727 727 727 727 727 727 727 728 727 725 724 723 722 721 720 718 717 716 714 713 711 709 708 707 705 704 703 702 702 702 701 701 700 700 699 699
802 800 798 796 795 793 792 790 788 786 784 783 781 780 778 777 775 773 771 769 767 765 763 762 760 757 756 755 753 752 750 748 747 746 745 743 741 741 739 737 736 735 733 732 731 729 728 727 726 725 725 725 726 726 726 726 726 725 723 723 722 721 720 718 716 715 714 713 711 710 708 707 705 704 703 701 700 700 699 698 698 697 697 696 696
801 799 797 795 793 791 790 788 786 784 783 781 780 778 777 775 773 771 770 767 765 763 761 760 758 755 754 753 751 749 748 747 745 744 743 741 740 739 737 736 734 733 731 729 728 727 727 725 724 724 724 724 725 725 725 725 724 723 722 721 720 719 717 716 714 713 712 710 709 707 706 705 704 702 701 700 699 698 697 696 696 695 694 694 694
800 797 795 793 791 789 788 786 784 783 781 780 778 776 774 773 771 770 768 766 764 761 760 758 756 754 752 750 749 748 746 745 744 742 741 740 738 737 735 733 732 731 729 728 727 726 725 724 723 723 724 724 724 724 723 723 722 721 720 720 718 716 715 713 712 711 709 708 707 705 703 703 702 700 699 698 697 696 695 694 693 693 692 691 691
798 796 793 791 789 788 786 784 783 781 779 778 776 774 773 771 769 768 766 764 762 760 758 757 754 752 750 749 748 747 745 744 742 741 740 739 737 735 733 732 730 729 728 727 726 725 724 724 724 723 723 723 723 722 722 721 720 720 719 718 716 715 713 711 710 708 707 705 704 702 700 700 699 698 697 696 695 694 693 692 691 690 689 688 687
796 794 791 789 788 786 784 782 781 779 778 776 775 773 771 769 767 766 764 763 761 759 757 755 753 751 749 748 746 745 744 742 741 739 738 737 736 734 732 731 729 728 727 726 726 725 724 724 723 723 722 722 721 721 721 720 719 718 717 716 715 713 712 710 708 707 705 703 702 700 698 697 696 695 694 693 692 691 690 689 688 687 686 685 683
795 792 790 788 786 784 782 780 779 777 776 775 773 771 769 767 766 764 763 762 760 758 756 754 752 751 749 747 745 744 743 741 740 738 737 736 734 733 731 730 729 727 727 725 724 724 723 722 722 722 721 721 721 720 720 719 718 717 715 714 713 712 710 709 707 705 703 701 700 698 696 695 694 692 691 690 689 688 687 686 685 684 683 682 680
793 791 789 787 785 782 780 778 777 776 774 773 772 769 768 766 765 763 762 760 759 757 755 753 752 750 748 746 745 743 742 740 739 737 736 734 733 732 730 729 728 727 726 724 723 723 722 722 721 721 720 720 720 719 718 717 715 714 713 712 711 710 708 707 705 704 702 700 698 696 694 693 692 690 689 688 687 686 685 685 683 681 680 679 677
793 790 788 786 783 781 780 778 776 774 773 771 770 767 766 764 763 762 761 759 758 756 754 752 751 749 747 746 744 742 741 740 738 737 735 733 732 731 729 728 727 726 725 723 722 722 721 721 720 720 719 718 717 716 715 714 713 712 711 710 709 708 707 705 704 702 700 699 697 694 693 691 690 688 687 686 685 684 684 682 681 679 678 677 674
791 789 787 785 782 780 778 777 775 773 771 769 767 766 764 763 762 760 759 758 757 754 752 751 749 748 746 745 743 741 739 738 737 736 735 733 732 730 728 726 725 724 723 722 721 721 720 720 719 718 718 717 715 714 713 712 711 711 710 709 708 707 705 704 702 701 699 697 695 693 692 690 688 687 686 684 683 682 682 681 679 677 676 674 672
790 788 786 784 782 780 777 775 773 771 769 767 765 763 762 762 761 759 757 756 755 753 751 749 747 746 744 743 742 740 738 736 735 734 733 731 730 728 726 724 723 722 721 720 720 719 719 718 718 717 716 715 714 713 712 711 710 709 709 708 707 706 704 703 702 700 698 696 695 693 691 689 687 686 685 683 682 681 680 679 677 675 674 672 670
789 787 785 783 781 779 776 774 772 770 768 766 763 761 760 759 759 758 757 754 752 751 749 747 746 745 743 741 740 738 737 735 734 732 731 729 727 726 724 722 721 721 720 719 719 718 718 718 717 716 715 714 713 712 711 710 709 708 708 707 706 705 704 702 701 699 697 696 694 692 690 688 687 685 684 682 680 679 678 676 675 673 672 670 668
789 786 784 782 779 777 775 773 771 769 767 765 763 761 759 757 756 756 755 753 751 749 748 746 744 743 741 740 738 737 735 734 732 730 729 727 725 723 722 721 720 720 719 718 718 717 717 717 716 715 715 713 712 711 710 710 709 708 707 706 705 704 703 701 700 699 697 695 693 691 689 688 686 684 682 681 679 677 676 674 673 671 670 668 666
788 786 783 780 778 776 774 772 770 768 766 764 762 760 759 757 755 753 752 751 750 748 747 745 743 742 740 739 737 736 734 732 730 728 727 725 723 722 721 720 719 719 718 718 717 716 716 716 715 715 714 712 712 711 710 709 708 707 706 705 704 702 701 700 699 698 696 694 693 691 689 687 685 683 682 680 678 676 674 673 671 669 667 665 664
787 785 782 780 777 775 773 772 770 768 766 764 762 760 759 757 756 753 751 749 748 746 745 744 743 741 739 738 736 734 732 730 729 727 725 724 722 721 720 719 719 718 718 717 716 716 716 715 714 714 713 712 711 710 709 708 707 706 705 704 702 701 700 699 698 696 695 693 692 690 688 686 684 683 681 679 677 675 673 671 669 667 665 663 661
786 784 781 779 777 775 773 772 770 768 766 764 762 760 758 757 755 753 751 749 747 745 744 743 742 741 739 737 735 733 731 730 728 726 724 723 721 720 719 718 718 717 717 716 716 715 715 714 713 713 712 711 710 709 708 707 706 705 704 702 701 699 698 697 696 695 693 692 690 688 687 685 683 682 680 677 675 673 671 669 668 666 664 661 659
784 782 780 779 777 775 773 772 770 768 765 763 761 760 758 756 755 753 751 750 748 746 744 742 741 740 738 736 734 732 731 729 727 725 723 721 720 719 718 718 717 717 716 716 716 715 714 713 713 712 711 710 709 708 707 706 705 704 702 701 699 698 697 695 694 693 691 690 688 686 685 683 681 680 678 676 674 671 669 667 665 663 661 660 658
783 781 779 778 776 775 773 771 769 767 765 763 761 759 757 756 754 753 751 749 747 746 744 742 740 738 737 735 734 732 730 728 725 723 722 720 719 719 718 717 717 717 716 716 715 714 714 713 712 711 710 709 708 707 706 704 703 702 701 699 698 697 695 694 692 691 690 688 686 685 683 682 680 678 676 674 671 669 667 664 662 660 659 657 655
783 781 779 777 776 774 772 770 769 767 765 763 761 759 757 756 754 752 751 749 747 746 744 742 740 738 736 735 733 732 730 727 724 722 721 719 719 719 718 718 717 717 716 715 715 714 713 713 712 711 709 708 707 705 704 703 702 700 699 698 696 695 693 692 691 689 688 686 685 683 682 680 678 677 675 673 670 667 665 662 660 658 656 654 653
783 781 779 777 776 774 772 770 768 766 765 763 761 759 758 756 754 753 751 749 747 746 744 742 740 739 737 735 733 731 730 727 725 723 722 721 720 719 718 718 717 716 716 715 714 713 713 712 711 709 708 707 705 704 702 701 700 699 697 696 694 693 691 690 689 688 686 685 683 682 680 678 677 675 673 671 669 666 663 660 658 656 654 652 651
783 781 779 777 775 773 772 770 768 767 765 763 761 760 758 756 754 753 751 749 748 746 744 742 740 739 737 735 733 732 730 728 726 725 723 722 721 720 719 718 717 716 715 714 713 713 712 710 709 708 706 705 703 702 701 699 698 697 696 694 693 691 690 688 687 686 685 683 681 680 679 677 675 673 671 669 667 665 662 660 657 655 653 652 651
783 781 779 777 775 774 772 770 768 767 765 763 762 760 758 756 755 753 751 750 748 746 744 742 740 739 737 735 734 732 730 729 727 725 724 723 721 720 719 718 717 716 715 713 712 711 710 709 707 706 704 703 702 700 699 698 696 695 694 692 691 689 688 687 685 684 683 681 680 678 677 675 674 672 670 668 666 664 662 659 657 655 653 652 651
783 781 779 777 775 774 772 770 768 767 765 763 762 760 758 756 755 753 751 749 748 746 744 742 740 739 737 735 734 732 730 729 727 725 724 723 721 720 719 717 716 715 714 713 711 710 709 707 705 704 702 701 699 698 697 696 694 693 692 690 689 688 686 685 683 682 681 680 678 677 676 674 673 671 669 667 665 663 661 659 657 655 653 652 651
783 781 779 777 776 774 772 770 769 767 765 763 761 760 758 756 754 752 751 749 747 746 744 742 740 738 736 735 734 732 730 729 727 725 724 722 721 719 718 717 715 714 713 712 710 709 707 705 703 702 700 699 697 696 695 693 692 691 690 688 687 686 684 683 682 681 680 678 677 675 674 672 671 669 668 666 664 662 660 659 657 655 653 652 651
783 781 779 777 776 774 772 770 769 766 765 763 761 759 758 756 754 752 751 749 747 745 744 742 740 738 736 734 733 731 730 728 726 725 723 722 720 719 717 716 714 713 712 710 708 707 705 703 701 699 698 696 695 694 692 691 690 689 687 686 685 683 682 681 680 679 678 677 675 674 672 671 669 668 666 665 664 662 660 658 656 655 653 652 650
783 781 779 777 776 774 772 770 768 766 765 763 761 759 757 755 754 752 750 748 747 745 743 741 739 738 736 734 732 731 729 727 726 724 723 721 719 718 716 715 713 712 710 708 706 704 703 701 699 697 695 693 692 691 689 688 687 686 685 684 683 681 680 679 678 677 676 675 674 672 670 669 668 666 665 664 662 661 659 657 656 654 652 651 650
783 781 779 778 776 774 772 770 768 766 764 762 760 759 757 755 753 752 750 748 746 744 742 741 739 737 735 734 732 730 729 727 725 723 722 720 718 717 715 713 712 710 708 706 704 702 700 698 697 695 693 691 689 688 687 686 685 684 683 682 681 679 678 677 677 676 675 674 672 671 669 667 666 664 663 662 661 659 658 656 654 653 652 650 649
783 781 779 778 776 774 772 770 768 766 764 762 761 759 757 755 753 751 749 748 746 744 742 740 738 737 735 733 731 730 728 726 724 723 721 719 717 716 714 712 710 708 706 704 702 700 698 696 694 693 691 689 688 686 685 684 683 682 681 680 679 678 677 676 675 674 673 672 670 669 667 665 664 662 661 660 659 657 656 654 653 651 650 649 648
783 781 779 778 776 774 772 770 768 766 764 762 760 758 757 755 753 751 749 747 746 744 742 740 738 736 735 733 731 729 728 726 724 722 720 718 716 714 712 711 709 706 704 702 700 698 696 694 693 691 689 688 686 685 683 682 681 680 679 678 677 676 676 675 673 672 671 669 668 666 665 663 662 660 659 658 657 656 654 653 651 650 649 647 646
783 781 779 778 776 774 772 770 768 766 764 762 760 758 756 755 753 751 749 747 745 744 742 740 738 736 734 732 730 729 727 725 723 721 719 717 715 713 711 709 707 705 702 700 698 696 695 693 691 689 688 686 685 683 682 681 680 679 678 677 676 674 674 672 671 670 668 667 665 664 663 661 660 659 658 656 655 654 653 651 650 648 647 646 645
783 782 780 778 776 774 772 771 768 766 764 762 760 758 756 754 753 751 749 747 745 743 741 740 738 736 734 732 730 728 726 724 722 720 718 716 713 711 709 707 705 703 701 699 697 695 693 691 690 688 686 685 683 682 681 680 678 677 676 675 674 672 671 670 668 667 666 664 663 661 660 659 658 656 655 654 653 652 651 650 648 647 646 645 644
784 782 780 778 776 774 772 770 768 766 764 762 760 758 757 755 753 751 749 747 745 743 741 739 737 735 733 732 730 727 725 723 721 719 717 715 712 710 708 706 704 702 700 698 696 694 692 690 688 686 685 684 682 681 680 679 677 676 674 673 671 670 668 667 666 664 663 662 660 659 658 657 655 654 653 652 651 650 649 648 647 646 645 644 642